Погода в Канате

Канада     45°19′44″N   75°54′00″W
темп.,
°C
ветер,
м/с
пор.,
м/с
влажн.,
%
обл.,
%
осадки,
мм/ч
давл.,
гПа
погр.,
м
11 апреля, вс
вс1123:00+15ююв1176100 0.0 100510
02:00+14вюв228069 0.0 100415
05:00+11в4894100 0.0 1004221
08:00+9в61287100 0.0 1005342
11:00+12в61076100 0.0 1004427
14:00+15в81164100 0.0 1003734
17:00+15в61260100 0.1 1003812
20:00+11в61357100 1.1 1005570
12 апреля, пн
пн1223:00+10в61361100 0.2 1006524
02:00+8всв61267100 0.2 1006478
05:00+7в61380100 0.1 1006501
08:00+7в61382100 0.1 1008571
11:00+9в61376100 0.1 1009727
14:00+12в7970100 0.1 1010982
17:00+13всв71169100 0.0 1010976
20:00+11в61277100 0.0 1013885
13 апреля, вт
вт1323:00+9в51180100 0.2 1014723
02:00+8в51080100 0.3 1015543
05:00+7всв4880100 0.0 1017432
08:00+7в4783100 0.0 1018390
11:00+11в3364100 0.0 1018947
14:00+14в2253100 0.0 10171466
17:00+13в336396 0.1 1016748
20:00+10вюв1173100 0.1 101712
14 апреля, ср
ср1423:00+9юз1182100 0.0 101710
02:00+8всв118292 0.0 101614
05:00+8св2274100 0.0 101659
08:00+8в347975 0.0 1016225
11:00+10в447176 0.0 1016599
14:00+13в555825 0.0 10131031
17:00+14в445683 0.1 10121327
20:00+10в3875100 0.3 1011181
15 апреля, чт
чт1523:00+8в4125548 0.0 1011337
02:00+7всв5126557 0.0 1009404
05:00+6всв51171100 0.0 1008347
08:00+6в5117899 0.3 1008397
11:00+8в61183100 1.3 1008657
14:00+8ююв61190100 8.3 1008917
17:00+7ю3792100 6.1 1008406
20:00+7ссз2398100 9.3 1009149